Guam Agana, GU

4:57 AM ChST on November 22, 2019 (GMT +1000)
Guam International

Weather History for PGUM - June, 2019

Change the Weather History Date:

Friday, June 14, 2019

  Actual Average Record
Temperature  
Mean Temperature 84 °F -  
Max Temperature 90 °F 85 °F 91 °F (2014)
Min Temperature 79 °F 75 °F 73 °F (1997)
Cooling Degree Days 20    
Growing Degree Days 34 (Base 50)    
Moisture  
Dew Point 74 °F    
Average Humidity 73    
Maximum Humidity 88    
Minimum Humidity 55    
Precipitation  
Precipitation 0.00 in - - ()
Sea Level Pressure  
Sea Level Pressure 29.85 in    
Wind  
Wind Speed 7 mph ()    
Max Wind Speed 15 mph    
Max Gust Speed 20 mph    
Visibility 10.0 miles    
Events      
Averages and records for this station are not official NWS values.
T = Trace of Precipitation, MM = Missing Value Source: Averaged Metar Reports

Daily Weather History Graph

Daily Weather History Graph

Search for Another Location

Airport or City:

Astronomy

Jun. 14, 2019 Rise Set
Actual Time 5:53 AM ChST 6:48 PM ChST
Civil Twilight 5:30 AM ChST 7:11 PM ChST
Nautical Twilight 5:02 AM ChST 7:39 PM ChST
Astronomical Twilight 4:34 AM ChST 8:07 PM ChST
Moon 3:58 PM ChST (6/14) 3:11 AM ChST (6/14)
Length of Visible Light 13h 41m
Length of Day
12h 54m
Waxing Gibbous, 88% of the Moon is Illuminated
Jun 14
Waxing Gibbous
Jun 17
Full
Jun 25
Last Quarter
Jul 3
New
Jul 9
First Quarter

Hourly Weather History & Observations

Time (ChST) Temp. Heat Index Dew Point Humidity Pressure Visibility Wind Dir Wind Speed Gust Speed Precip Events Conditions
12:54 AM 82.0 °F 89.4 °F 75.9 °F 82% 29.89 in 10.0 mi East 4.6 mph - N/A   Partly Cloudy
1:54 AM 81.0 °F 86.7 °F 75.0 °F 82% 29.87 in 10.0 mi ENE 5.8 mph - N/A   Partly Cloudy
2:54 AM 79.0 °F - 73.0 °F 82% 29.85 in 10.0 mi East 5.8 mph - N/A   Clear
3:54 AM 79.0 °F - 75.0 °F 88% 29.85 in 10.0 mi Calm Calm - N/A   Clear
4:54 AM 80.1 °F 85.4 °F 75.9 °F 87% 29.86 in 10.0 mi ENE 3.5 mph - N/A   Clear
5:54 AM 81.0 °F 86.7 °F 75.0 °F 82% 29.86 in 10.0 mi East 5.8 mph - N/A   Clear
6:15 AM 80.1 °F 85.1 °F 75.0 °F 85% 29.89 in 10.0 mi East 3.5 mph - N/A   Mostly Cloudy
6:38 AM 81.0 °F 86.7 °F 75.0 °F 82% 29.89 in 10.0 mi East 4.6 mph - N/A   Scattered Clouds
7:54 AM 82.9 °F 90.8 °F 75.9 °F 79% 29.88 in 10.0 mi East 8.1 mph - N/A   Clear
8:54 AM 84.9 °F 93.3 °F 75.0 °F 72% 29.88 in 10.0 mi East 9.2 mph - N/A   Scattered Clouds
9:54 AM 87.1 °F 95.4 °F 73.9 °F 65% 29.88 in 10.0 mi East 10.4 mph - N/A   Scattered Clouds
10:54 AM 88.0 °F 96.5 °F 73.9 °F 63% 29.87 in 10.0 mi East 11.5 mph - N/A   Scattered Clouds
11:54 AM 89.1 °F 97.0 °F 73.0 °F 59% 29.85 in 10.0 mi East 13.8 mph 19.6 mph N/A   Scattered Clouds
12:54 PM 90.0 °F 96.9 °F 72.0 °F 55% 29.83 in 10.0 mi ESE 15.0 mph - N/A   Partly Cloudy
1:54 PM 90.0 °F 97.9 °F 73.0 °F 57% 29.81 in 10.0 mi East 13.8 mph - N/A   Partly Cloudy
2:54 PM 90.0 °F 96.9 °F 72.0 °F 55% 29.79 in 10.0 mi East 12.7 mph - N/A   Partly Cloudy
3:54 PM 88.0 °F 96.5 °F 73.9 °F 63% 29.79 in 10.0 mi East 15.0 mph - N/A   Scattered Clouds
4:54 PM 87.1 °F 94.5 °F 73.0 °F 63% 29.81 in 10.0 mi ENE 13.8 mph - N/A   Partly Cloudy
5:54 PM 86.0 °F 93.8 °F 73.9 °F 67% 29.82 in 10.0 mi East 15.0 mph - N/A   Clear
6:54 PM 84.0 °F 91.2 °F 73.9 °F 72% 29.83 in 10.0 mi East 10.4 mph - N/A   Clear
7:54 PM 82.9 °F 89.4 °F 73.9 °F 74% 29.85 in 10.0 mi East 9.2 mph - N/A   Clear
8:54 PM 82.9 °F 89.4 °F 73.9 °F 74% 29.87 in 10.0 mi East 9.2 mph - N/A   Clear
9:54 PM 82.9 °F 89.4 °F 73.9 °F 74% 29.88 in 10.0 mi East 6.9 mph - N/A   Clear
10:54 PM 82.9 °F 89.4 °F 73.9 °F 74% 29.88 in 10.0 mi East 8.1 mph - N/A   Partly Cloudy
11:54 PM 82.0 °F 88.6 °F 75.0 °F 79% 29.88 in 10.0 mi East 4.6 mph - N/A   Partly Cloudy